START_TIME,STEP,MOV.,M35,t_acc.,PL05,t_acc.,PL06,t_acc.,PL07,t_acc.
1986-01-24 03:00:01.420 ,3,0,0.,4.8,0.,4.8,0.,4.8,0.,4.8
1986-01-24 03:00:06.220 ,3,0,0.,4.8,1.,4.8,0.,4.8,0.,4.8
1986-01-24 03:00:11.020 ,3,0,0.,4.8,2.,4.8,0.,4.8,0.,4.8
1986-01-24 03:00:15.820 ,3,0,0.,4.8,2.,4.8,0.,4.8,0.,4.8
1986-01-24 03:00:20.620 ,3,0,0.,4.8,2.,4.8,0.,4.8,0.,4.8
1986-01-24 03:00:25.420 ,3,0,0.,4.8,1.,4.8,1.,4.8,0.,4.8
1986-01-24 03:00:30.220 ,3,0,0.,4.8,2.,4.8,0.,4.8,0.,4.8
1986-01-24 03:00:35.020 ,3,0,0.,4.8,1.,4.8,0.,4.8,0.,4.8
1986-01-24 03:00:39.820 ,3,0,0.,4.8,1.,4.8,0.,4.8,0.,4.8
1986-01-24 03:00:44.620 ,3,0,0.,4.8,0.,4.8,0.,4.8,0.,4.8
1986-01-24 03:00:49.420 ,2,0,0.,4.8,0.,4.8,0.,4.8,1.,4.8
1986-01-24 03:00:54.220 ,2,0,0.,4.8,2.,4.8,0.,4.8,0.,4.8
1986-01-24 03:00:59.020 ,2,0,0.,4.8,0.,4.8,0.,4.8,0.,4.8
1986-01-24 03:01:03.820 ,2,0,0.,4.8,2.,4.8,0.,4.8,0.,4.8
1986-01-24 03:01:08.620 ,2,0,0.,4.8,2.,4.8,0.,4.8,0.,4.8
1986-01-24 03:01:13.420 ,2,0,0.,4.8,3.,4.8,0.,4.8,0.,4.8
1986-01-24 03:01:18.220 ,2,0,0.,4.8,0.,4.8,0.,4.8,0.,4.8
1986-01-24 03:01:23.020 ,2,0,0.,4.8,0.,4.8,0.,4.8,0.,4.8
1986-01-24 03:01:27.820 ,2,0,0.,4.8,1.,4.8,0.,4.8,0.,4.8
1986-01-24 03:01:32.620 ,2,0,0.,4.8,0.,4.8,0.,4.8,0.,4.8
1986-01-24 03:01:37.420 ,1,0,0.,4.8,1.,4.8,0.,4.8,0.,4.8
1986-01-24 03:01:42.220 ,1,0,0.,4.8,1.,4.8,0.,4.8,0.,4.8
1986-01-24 03:01:47.020 ,1,0,0.,4.8,0.,4.8,0.,4.8,0.,4.8
1986-01-24 03:01:51.820 ,1,0,0.,4.8,0.,4.8,0.,4.8,0.,4.8
1986-01-24 03:01:56.620 ,1,0,0.,4.8,0.,4.8,0.,4.8,0.,4.8
1986-01-24 03:02:01.420 ,1,0,0.,4.8,0.,4.8,0.,4.8,0.,4.8
1986-01-24 03:02:06.220 ,1,0,0.,4.8,0.,4.8,0.,4.8,0.,4.8
1986-01-24 03:02:11.020 ,1,0,0.,4.8,0.,4.8,1.,4.8,0.,4.8
1986-01-24 03:02:15.820 ,1,0,0.,4.8,0.,4.8,0.,4.8,0.,4.8
1986-01-24 03:02:20.620 ,1,0,0.,4.8,1.,4.8,0.,4.8,0.,4.8
1986-01-24 03:02:25.420 ,0,0,0.,4.8,0.,4.8,0.,4.8,0.,4.8
1986-01-24 03:02:30.220 ,0,0,0.,4.8,0.,4.8,0.,4.8,0.,4.8
1986-01-24 03:02:35.020 ,0,0,0.,4.8,2.,4.8,1.,4.8,0.,4.8
1986-01-24 03:02:39.820 ,0,0,0.,4.8,2.,4.8,0.,4.8,0.,4.8
1986-01-24 03:02:44.620 ,0,0,0.,4.8,1.,4.8,0.,4.8,0.,4.8
1986-01-24 03:02:49.420 ,0,0,0.,4.8,0.,4.8,0.,4.8,0.,4.8
1986-01-24 03:02:54.220 ,0,0,0.,4.8,0.,4.8,0.,4.8,0.,4.8
1986-01-24 03:02:59.020 ,0,0,0.,4.8,1.,4.8,1.,4.8,0.,4.8
1986-01-24 03:03:03.820 ,0,0,0.,4.8,1.,4.8,1.,4.8,0.,4.8
1986-01-24 03:03:08.620 ,0,0,0.,4.8,0.,4.8,0.,4.8,0.,4.8
1986-01-24 03:03:13.420 ,0,0,0.,4.8,2.,4.8,0.,4.8,0.,4.8
1986-01-24 03:03:18.220 ,0,0,0.,4.8,2.,4.8,0.,4.8,0.,4.8
1986-01-24 03:03:23.020 ,0,0,0.,4.8,2.,4.8,0.,4.8,0.,4.8
1986-01-24 03:03:27.820 ,0,0,0.,4.8,1.,4.8,1.,4.8,0.,4.8
1986-01-24 03:03:32.620 ,0,0,0.,4.8,0.,4.8,0.,4.8,0.,4.8
1986-01-24 03:03:37.420 ,0,0,0.,4.8,0.,4.8,0.,4.8,0.,4.8
1986-01-24 03:03:42.220 ,0,0,0.,4.8,0.,4.8,0.,4.8,0.,4.8
1986-01-24 03:03:47.020 ,0,0,0.,4.8,0.,4.8,0.,4.8,1.,4.8
1986-01-24 03:03:51.820 ,0,0,0.,4.8,1.,4.8,1.,4.8,0.,4.8
1986-01-24 03:03:56.620 ,0,0,0.,4.8,1.,4.8,0.,4.8,0.,4.8
1986-01-24 03:04:01.420 ,1,0,0.,4.8,0.,4.8,0.,4.8,0.,4.8
1986-01-24 03:04:06.220 ,1,0,0.,4.8,0.,4.8,0.,4.8,0.,4.8
1986-01-24 03:04:11.020 ,1,0,0.,4.8,0.,4.8,0.,4.8,0.,4.8
1986-01-24 03:04:15.820 ,1,0,0.,4.8,0.,4.8,0.,4.8,0.,4.8
1986-01-24 03:04:20.620 ,1,0,0.,4.8,0.,4.8,0.,4.8,0.,4.8
1986-01-24 03:04:25.420 ,1,0,0.,4.8,1.,4.8,0.,4.8,0.,4.8
1986-01-24 03:04:30.220 ,1,0,0.,4.8,1.,4.8,0.,4.8,0.,4.8
1986-01-24 03:04:35.020 ,1,0,0.,4.8,0.,4.8,0.,4.8,0.,4.8
1986-01-24 03:04:39.820 ,1,0,0.,4.8,0.,4.8,0.,4.8,0.,4.8
1986-01-24 03:04:44.620 ,1,0,0.,4.8,3.,4.8,0.,4.8,0.,4.8
1986-01-24 03:04:49.420 ,2,0,0.,4.8,1.,4.8,0.,4.8,0.,4.8
1986-01-24 03:04:54.220 ,2,0,0.,4.8,1.,4.8,0.,4.8,0.,4.8
1986-01-24 03:04:59.020 ,2,0,0.,4.8,1.,4.8,0.,4.8,0.,4.8
1986-01-24 03:05:03.820 ,2,0,0.,4.8,0.,4.8,0.,4.8,0.,4.8
1986-01-24 03:05:08.620 ,2,0,0.,4.8,0.,4.8,0.,4.8,0.,4.8
1986-01-24 03:05:13.420 ,2,0,0.,4.8,2.,4.8,0.,4.8,0.,4.8
1986-01-24 03:05:18.220 ,2,0,0.,4.8,1.,4.8,0.,4.8,0.,4.8
1986-01-24 03:05:23.020 ,2,0,0.,4.8,0.,4.8,0.,4.8,0.,4.8
1986-01-24 03:05:27.820 ,2,0,0.,4.8,0.,4.8,0.,4.8,0.,4.8
1986-01-24 03:05:32.620 ,2,0,0.,4.8,1.,4.8,1.,4.8,0.,4.8
1986-01-24 03:05:37.420 ,3,0,0.,4.8,0.,4.8,0.,4.8,0.,4.8
1986-01-24 03:05:42.220 ,3,0,0.,4.8,2.,4.8,1.,4.8,0.,4.8
1986-01-24 03:05:47.020 ,3,0,0.,4.8,0.,4.8,0.,4.8,0.,4.8
1986-01-24 03:05:51.820 ,3,0,0.,4.8,1.,4.8,0.,4.8,0.,4.8
1986-01-24 03:05:56.620 ,3,0,0.,4.8,0.,4.8,0.,4.8,0.,4.8
1986-01-24 03:06:01.420 ,3,0,0.,4.8,0.,4.8,0.,4.8,0.,4.8
1986-01-24 03:06:06.220 ,3,0,0.,4.8,1.,4.8,0.,4.8,0.,4.8
1986-01-24 03:06:11.020 ,3,0,0.,4.8,0.,4.8,0.,4.8,0.,4.8
1986-01-24 03:06:15.820 ,3,0,0.,4.8,0.,4.8,0.,4.8,0.,4.8
1986-01-24 03:06:20.620 ,3,0,0.,4.8,0.,4.8,0.,4.8,0.,4.8
1986-01-24 03:06:25.420 ,4,0,0.,4.8,0.,4.8,0.,4.8,0.,4.8
1986-01-24 03:06:30.220 ,4,0,0.,4.8,1.,4.8,0.,4.8,0.,4.8
1986-01-24 03:06:35.020 ,4,0,0.,4.8,0.,4.8,0.,4.8,1.,4.8
1986-01-24 03:06:39.820 ,4,0,0.,4.8,1.,4.8,0.,4.8,0.,4.8
1986-01-24 03:06:44.620 ,4,0,0.,4.8,0.,4.8,0.,4.8,0.,4.8
1986-01-24 03:06:49.420 ,4,0,0.,4.8,1.,4.8,0.,4.8,0.,4.8
1986-01-24 03:06:54.220 ,4,0,0.,4.8,0.,4.8,0.,4.8,0.,4.8
1986-01-24 03:06:59.020 ,4,0,0.,4.8,0.,4.8,0.,4.8,0.,4.8
1986-01-24 03:07:03.820 ,4,0,0.,4.8,1.,4.8,0.,4.8,0.,4.8
1986-01-24 03:07:08.620 ,4,0,0.,4.8,1.,4.8,0.,4.8,0.,4.8
1986-01-24 03:07:13.420 ,5,0,0.,4.8,0.,4.8,0.,4.8,0.,4.8
1986-01-24 03:07:18.220 ,5,0,0.,4.8,2.,4.8,0.,4.8,0.,4.8
1986-01-24 03:07:23.020 ,5,0,0.,4.8,0.,4.8,0.,4.8,0.,4.8
1986-01-24 03:07:27.820 ,5,0,0.,4.8,2.,4.8,0.,4.8,0.,4.8
1986-01-24 03:07:32.620 ,5,0,0.,4.8,1.,4.8,0.,4.8,0.,4.8
1986-01-24 03:07:37.420 ,5,0,0.,4.8,0.,4.8,0.,4.8,0.,4.8
1986-01-24 03:07:42.220 ,5,0,0.,4.8,0.,4.8,0.,4.8,0.,4.8
1986-01-24 03:07:47.020 ,5,0,0.,4.8,2.,4.8,0.,4.8,1.,4.8
1986-01-24 03:07:51.820 ,5,0,0.,4.8,1.,4.8,0.,4.8,0.,4.8
1986-01-24 03:07:56.620 ,5,0,0.,4.8,1.,4.8,1.,4.8,0.,4.8
1986-01-24 03:08:01.420 ,6,0,0.,4.8,2.,4.8,0.,4.8,0.,4.8
1986-01-24 03:08:06.220 ,6,0,0.,4.8,0.,4.8,0.,4.8,0.,4.8
1986-01-24 03:08:11.020 ,6,0,0.,4.8,0.,4.8,0.,4.8,0.,4.8
1986-01-24 03:08:15.820 ,6,0,0.,4.8,0.,4.8,0.,4.8,0.,4.8
1986-01-24 03:08:20.620 ,6,0,0.,4.8,1.,4.8,0.,4.8,0.,4.8
1986-01-24 03:08:25.420 ,6,0,0.,4.8,0.,4.8,1.,4.8,0.,4.8
1986-01-24 03:08:30.220 ,6,0,0.,4.8,0.,4.8,0.,4.8,0.,4.8
1986-01-24 03:08:35.020 ,6,0,0.,4.8,0.,4.8,2.,4.8,0.,4.8
1986-01-24 03:08:39.820 ,6,0,0.,4.8,1.,4.8,0.,4.8,0.,4.8
1986-01-24 03:08:44.620 ,6,0,0.,4.8,2.,4.8,0.,4.8,0.,4.8
1986-01-24 03:08:49.420 ,7,0,0.,4.8,1.,4.8,1.,4.8,0.,4.8
1986-01-24 03:08:54.220 ,7,0,0.,4.8,0.,4.8,0.,4.8,0.,4.8
1986-01-24 03:08:59.020 ,7,0,0.,4.8,1.,4.8,0.,4.8,2.,4.8
1986-01-24 03:09:03.820 ,7,0,0.,4.8,0.,4.8,0.,4.8,0.,4.8
1986-01-24 03:09:08.620 ,7,0,0.,4.8,0.,4.8,0.,4.8,0.,4.8
1986-01-24 03:09:13.420 ,7,0,0.,4.8,3.,4.8,0.,4.8,0.,4.8
1986-01-24 03:09:18.220 ,7,0,0.,4.8,0.,4.8,0.,4.8,0.,4.8
1986-01-24 03:09:23.020 ,7,0,0.,4.8,1.,4.8,0.,4.8,0.,4.8
1986-01-24 03:09:27.820 ,7,0,0.,4.8,0.,4.8,0.,4.8,0.,4.8
1986-01-24 03:09:32.620 ,7,0,0.,4.8,1.,4.8,0.,4.8,0.,4.8
1986-01-24 03:09:37.420 ,7,0,0.,4.8,2.,4.8,0.,4.8,0.,4.8
1986-01-24 03:09:42.220 ,7,0,0.,4.8,0.,4.8,0.,4.8,0.,4.8
1986-01-24 03:09:47.020 ,7,0,0.,4.8,0.,4.8,0.,4.8,0.,4.8
1986-01-24 03:09:51.820 ,7,0,0.,4.8,0.,4.8,1.,4.8,0.,4.8
1986-01-24 03:09:56.620 ,7,0,0.,4.8,0.,4.8,1.,4.8,0.,4.8
1986-01-24 03:10:01.420 ,7,0,0.,4.8,1.,4.8,0.,4.8,1.,4.8
1986-01-24 03:10:06.220 ,7,0,0.,4.8,1.,4.8,0.,4.8,0.,4.8
1986-01-24 03:10:11.020 ,7,0,0.,4.8,1.,4.8,0.,4.8,0.,4.8
1986-01-24 03:10:15.820 ,7,0,0.,4.8,2.,4.8,0.,4.8,0.,4.8
1986-01-24 03:10:20.620 ,7,0,0.,4.8,1.,4.8,0.,4.8,0.,4.8
1986-01-24 03:10:25.420 ,6,0,0.,4.8,1.,4.8,0.,4.8,0.,4.8
1986-01-24 03:10:30.220 ,6,0,0.,4.8,1.,4.8,0.,4.8,0.,4.8
1986-01-24 03:10:35.020 ,6,0,0.,4.8,0.,4.8,0.,4.8,0.,4.8
1986-01-24 03:10:39.820 ,6,0,0.,4.8,0.,4.8,0.,4.8,0.,4.8
1986-01-24 03:10:44.620 ,6,0,0.,4.8,0.,4.8,0.,4.8,0.,4.8
1986-01-24 03:10:49.420 ,6,0,0.,4.8,1.,4.8,0.,4.8,0.,4.8
1986-01-24 03:10:54.220 ,6,0,0.,4.8,1.,4.8,1.,4.8,0.,4.8
1986-01-24 03:10:59.020 ,6,0,0.,4.8,3.,4.8,0.,4.8,0.,4.8
1986-01-24 03:11:03.820 ,6,0,0.,4.8,1.,4.8,0.,4.8,0.,4.8
1986-01-24 03:11:08.620 ,6,0,0.,4.8,3.,4.8,0.,4.8,1.,4.8
1986-01-24 03:11:37.420 ,5,0,0.,4.8,0.,4.8,0.,4.8,0.,4.8
1986-01-24 03:11:42.220 ,5,0,0.,4.8,0.,4.8,0.,4.8,0.,4.8
1986-01-24 03:11:47.020 ,5,0,0.,4.8,2.,4.8,0.,4.8,0.,4.8
1986-01-24 03:11:51.820 ,5,0,0.,4.8,0.,4.8,0.,4.8,0.,4.8
1986-01-24 03:11:56.620 ,5,0,0.,4.8,0.,4.8,0.,4.8,0.,4.8
1986-01-24 03:12:01.420 ,4,0,0.,4.8,2.,4.8,0.,4.8,0.,4.8
1986-01-24 03:12:06.220 ,4,0,0.,4.8,1.,4.8,0.,4.8,0.,4.8
1986-01-24 03:12:11.020 ,4,0,0.,4.8,1.,4.8,0.,4.8,0.,4.8
1986-01-24 03:12:15.820 ,4,0,0.,4.8,0.,4.8,0.,4.8,0.,4.8
1986-01-24 03:12:20.620 ,4,0,0.,4.8,0.,4.8,0.,4.8,0.,4.8
1986-01-24 03:12:25.420 ,4,0,0.,4.8,2.,4.8,0.,4.8,0.,4.8
1986-01-24 03:12:30.220 ,4,0,0.,4.8,1.,4.8,0.,4.8,0.,4.8
1986-01-24 03:12:35.020 ,4,0,0.,4.8,0.,4.8,0.,4.8,0.,4.8
1986-01-24 03:12:39.820 ,4,0,0.,4.8,1.,4.8,0.,4.8,0.,4.8
1986-01-24 03:12:44.620 ,4,0,0.,4.8,0.,4.8,1.,4.8,0.,4.8
1986-01-24 03:12:49.420 ,3,0,0.,4.8,0.,4.8,1.,4.8,0.,4.8
1986-01-24 03:12:54.220 ,3,0,0.,4.8,1.,4.8,0.,4.8,0.,4.8
1986-01-24 03:12:59.020 ,3,0,0.,4.8,0.,4.8,0.,4.8,0.,4.8
1986-01-24 03:13:03.820 ,3,0,0.,4.8,2.,4.8,1.,4.8,0.,4.8
1986-01-24 03:13:08.620 ,3,0,0.,4.8,0.,4.8,0.,4.8,0.,4.8
1986-01-24 03:13:13.420 ,3,0,0.,4.8,1.,4.8,1.,4.8,0.,4.8
1986-01-24 03:13:18.220 ,3,0,0.,4.8,2.,4.8,0.,4.8,0.,4.8
1986-01-24 03:13:23.020 ,3,0,0.,4.8,3.,4.8,0.,4.8,1.,4.8
1986-01-24 03:13:27.820 ,3,0,0.,4.8,0.,4.8,0.,4.8,0.,4.8
1986-01-24 03:13:32.620 ,3,0,0.,4.8,1.,4.8,0.,4.8,0.,4.8
1986-01-24 03:13:37.420 ,2,0,0.,4.8,0.,4.8,0.,4.8,0.,4.8
1986-01-24 03:13:42.220 ,2,0,0.,4.8,1.,4.8,0.,4.8,1.,4.8
1986-01-24 03:13:47.020 ,2,0,0.,4.8,1.,4.8,0.,4.8,0.,4.8
1986-01-24 03:13:51.820 ,2,0,0.,4.8,0.,4.8,0.,4.8,0.,4.8
1986-01-24 03:13:56.620 ,2,0,0.,4.8,1.,4.8,0.,4.8,0.,4.8
1986-01-24 03:14:01.420 ,2,0,0.,4.8,1.,4.8,0.,4.8,0.,4.8
1986-01-24 03:14:06.220 ,2,0,0.,4.8,0.,4.8,0.,4.8,0.,4.8
1986-01-24 03:14:11.020 ,2,0,0.,4.8,1.,4.8,0.,4.8,0.,4.8
1986-01-24 03:14:15.820 ,2,0,0.,4.8,3.,4.8,0.,4.8,0.,4.8
1986-01-24 03:14:20.620 ,2,0,0.,4.8,0.,4.8,1.,4.8,0.,4.8
1986-01-24 03:14:25.420 ,1,0,0.,4.8,0.,4.8,0.,4.8,0.,4.8
1986-01-24 03:14:30.220 ,1,0,0.,4.8,0.,4.8,0.,4.8,0.,4.8
1986-01-24 03:14:35.020 ,1,0,0.,4.8,2.,4.8,1.,4.8,0.,4.8
1986-01-24 03:14:39.820 ,1,0,0.,4.8,2.,4.8,0.,4.8,0.,4.8
1986-01-24 03:14:44.620 ,1,0,0.,4.8,0.,4.8,1.,4.8,0.,4.8
1986-01-24 03:14:49.420 ,1,0,0.,4.8,2.,4.8,0.,4.8,0.,4.8
1986-01-24 03:14:54.220 ,1,0,0.,4.8,1.,4.8,0.,4.8,0.,4.8
1986-01-24 03:14:59.020 ,1,0,0.,4.8,0.,4.8,0.,4.8,0.,4.8
1986-01-24 03:15:03.820 ,1,0,0.,4.8,0.,4.8,0.,4.8,1.,4.8
1986-01-24 03:15:08.620 ,1,0,0.,4.8,1.,4.8,2.,4.8,0.,4.8
1986-01-24 03:15:13.420 ,0,0,0.,4.8,2.,4.8,0.,4.8,0.,4.8
1986-01-24 03:15:18.220 ,0,0,0.,4.8,1.,4.8,1.,4.8,0.,4.8
1986-01-24 03:15:23.020 ,0,0,0.,4.8,0.,4.8,0.,4.8,0.,4.8
1986-01-24 03:15:27.820 ,0,0,0.,4.8,0.,4.8,0.,4.8,0.,4.8
1986-01-24 03:15:32.620 ,0,0,0.,4.8,0.,4.8,0.,4.8,0.,4.8
1986-01-24 03:15:37.420 ,0,0,0.,4.8,0.,4.8,0.,4.8,0.,4.8
1986-01-24 03:15:42.220 ,0,0,0.,4.8,0.,4.8,0.,4.8,0.,4.8
1986-01-24 03:15:47.020 ,0,0,0.,4.8,0.,4.8,0.,4.8,0.,4.8
1986-01-24 03:15:51.820 ,0,0,0.,4.8,2.,4.8,0.,4.8,0.,4.8
1986-01-24 03:15:56.620 ,0,0,0.,4.8,2.,4.8,0.,4.8,1.,4.8
1986-01-24 03:16:01.420 ,0,0,0.,4.8,0.,4.8,0.,4.8,0.,4.8
1986-01-24 03:16:06.220 ,0,0,0.,4.8,3.,4.8,0.,4.8,0.,4.8
1986-01-24 03:16:11.020 ,0,0,0.,4.8,0.,4.8,0.,4.8,0.,4.8
1986-01-24 03:16:15.820 ,0,0,0.,4.8,1.,4.8,0.,4.8,0.,4.8
1986-01-24 03:16:20.620 ,0,0,0.,4.8,1.,4.8,0.,4.8,0.,4.8
1986-01-24 03:16:25.420 ,0,0,0.,4.8,1.,4.8,0.,4.8,1.,4.8
1986-01-24 03:16:30.220 ,0,0,0.,4.8,1.,4.8,0.,4.8,0.,4.8
1986-01-24 03:16:35.020 ,0,0,0.,4.8,0.,4.8,0.,4.8,0.,4.8
1986-01-24 03:16:39.820 ,0,0,0.,4.8,2.,4.8,1.,4.8,0.,4.8
1986-01-24 03:16:44.620 ,0,0,0.,4.8,2.,4.8,0.,4.8,0.,4.8
1986-01-24 03:16:49.420 ,1,0,0.,4.8,1.,4.8,1.,4.8,0.,4.8
1986-01-24 03:16:54.220 ,1,0,0.,4.8,0.,4.8,0.,4.8,0.,4.8
1986-01-24 03:16:59.020 ,1,0,0.,4.8,0.,4.8,1.,4.8,0.,4.8
1986-01-24 03:17:03.820 ,1,0,0.,4.8,0.,4.8,0.,4.8,1.,4.8
1986-01-24 03:17:08.620 ,1,0,0.,4.8,1.,4.8,0.,4.8,0.,4.8
1986-01-24 03:17:13.420 ,1,0,0.,4.8,1.,4.8,0.,4.8,0.,4.8
1986-01-24 03:17:18.220 ,1,0,0.,4.8,0.,4.8,0.,4.8,1.,4.8
1986-01-24 03:17:23.020 ,1,0,0.,4.8,1.,4.8,1.,4.8,0.,4.8
1986-01-24 03:17:27.820 ,1,0,0.,4.8,0.,4.8,0.,4.8,0.,4.8
1986-01-24 03:17:32.620 ,1,0,0.,4.8,1.,4.8,1.,4.8,0.,4.8
1986-01-24 03:17:37.420 ,2,0,0.,4.8,2.,4.8,1.,4.8,0.,4.8
1986-01-24 03:17:42.220 ,2,0,0.,4.8,0.,4.8,0.,4.8,0.,4.8
1986-01-24 03:17:47.020 ,2,0,0.,4.8,0.,4.8,0.,4.8,0.,4.8
1986-01-24 03:17:51.820 ,2,0,0.,4.8,0.,4.8,1.,4.8,0.,4.8
1986-01-24 03:17:56.620 ,2,0,0.,4.8,0.,4.8,0.,4.8,0.,4.8
1986-01-24 03:18:01.420 ,2,0,0.,4.8,1.,4.8,0.,4.8,0.,4.8
1986-01-24 03:18:06.220 ,2,0,0.,4.8,1.,4.8,0.,4.8,0.,4.8
1986-01-24 03:18:11.020 ,2,0,0.,4.8,1.,4.8,0.,4.8,0.,4.8
1986-01-24 03:18:15.820 ,2,0,0.,4.8,1.,4.8,1.,4.8,0.,4.8
1986-01-24 03:18:20.620 ,2,0,0.,4.8,1.,4.8,0.,4.8,0.,4.8
1986-01-24 03:18:25.420 ,3,0,0.,4.8,0.,4.8,0.,4.8,0.,4.8
1986-01-24 03:18:30.220 ,3,0,0.,4.8,0.,4.8,0.,4.8,1.,4.8
1986-01-24 03:18:35.020 ,3,0,0.,4.8,0.,4.8,0.,4.8,0.,4.8
1986-01-24 03:18:39.820 ,3,0,0.,4.8,1.,4.8,0.,4.8,0.,4.8
1986-01-24 03:18:44.620 ,3,0,0.,4.8,0.,4.8,0.,4.8,0.,4.8
1986-01-24 03:18:49.420 ,3,0,0.,4.8,0.,4.8,0.,4.8,0.,4.8
1986-01-24 03:18:54.220 ,3,0,0.,4.8,0.,4.8,0.,4.8,0.,4.8
1986-01-24 03:18:59.020 ,3,0,0.,4.8,0.,4.8,0.,4.8,0.,4.8
1986-01-24 03:19:03.820 ,3,0,0.,4.8,3.,4.8,0.,4.8,0.,4.8
1986-01-24 03:19:08.620 ,3,0,0.,4.8,0.,4.8,1.,4.8,0.,4.8
1986-01-24 03:19:13.420 ,4,0,0.,4.8,3.,4.8,0.,4.8,0.,4.8
1986-01-24 03:19:18.220 ,4,0,0.,4.8,2.,4.8,0.,4.8,0.,4.8
1986-01-24 03:19:23.020 ,4,0,0.,4.8,1.,4.8,0.,4.8,0.,4.8
1986-01-24 03:19:27.820 ,4,0,0.,4.8,1.,4.8,0.,4.8,0.,4.8
1986-01-24 03:19:32.620 ,4,0,0.,4.8,1.,4.8,0.,4.8,0.,4.8
1986-01-24 03:19:37.420 ,4,0,0.,4.8,1.,4.8,0.,4.8,0.,4.8
1986-01-24 03:19:42.220 ,4,0,0.,4.8,0.,4.8,1.,4.8,0.,4.8
1986-01-24 03:19:47.020 ,4,0,0.,4.8,0.,4.8,0.,4.8,0.,4.8
1986-01-24 03:19:51.820 ,4,0,0.,4.8,0.,4.8,0.,4.8,0.,4.8
1986-01-24 03:19:56.620 ,4,0,0.,4.8,2.,4.8,0.,4.8,0.,4.8
1986-01-24 03:20:01.420 ,5,0,0.,4.8,2.,4.8,0.,4.8,0.,4.8
1986-01-24 03:20:06.220 ,5,0,0.,4.8,0.,4.8,1.,4.8,0.,4.8
1986-01-24 03:20:11.020 ,5,0,0.,4.8,1.,4.8,0.,4.8,0.,4.8
1986-01-24 03:20:15.820 ,5,0,0.,4.8,0.,4.8,0.,4.8,0.,4.8
1986-01-24 03:20:20.620 ,5,0,0.,4.8,1.,4.8,0.,4.8,0.,4.8
1986-01-24 03:20:25.420 ,5,0,0.,4.8,0.,4.8,0.,4.8,0.,4.8
1986-01-24 03:20:30.220 ,5,0,0.,4.8,0.,4.8,0.,4.8,0.,4.8
1986-01-24 03:20:35.020 ,5,0,0.,4.8,0.,4.8,0.,4.8,0.,4.8
1986-01-24 03:20:39.820 ,5,0,0.,4.8,1.,4.8,0.,4.8,0.,4.8
1986-01-24 03:20:44.620 ,5,0,0.,4.8,1.,4.8,0.,4.8,0.,4.8
1986-01-24 03:20:49.420 ,6,0,0.,4.8,1.,4.8,0.,4.8,0.,4.8
1986-01-24 03:20:54.220 ,6,0,0.,4.8,1.,4.8,0.,4.8,0.,4.8
1986-01-24 03:20:59.020 ,6,0,0.,4.8,0.,4.8,0.,4.8,0.,4.8
1986-01-24 03:21:03.820 ,6,0,0.,4.8,0.,4.8,0.,4.8,0.,4.8
1986-01-24 03:21:08.620 ,6,0,0.,4.8,0.,4.8,0.,4.8,0.,4.8
1986-01-24 03:21:13.420 ,6,0,0.,4.8,1.,4.8,1.,4.8,0.,4.8
1986-01-24 03:21:18.220 ,6,0,0.,4.8,1.,4.8,0.,4.8,0.,4.8
1986-01-24 03:21:23.020 ,6,0,0.,4.8,1.,4.8,0.,4.8,0.,4.8
1986-01-24 03:21:27.820 ,6,0,0.,4.8,0.,4.8,0.,4.8,0.,4.8
1986-01-24 03:21:32.620 ,6,0,0.,4.8,1.,4.8,0.,4.8,0.,4.8
1986-01-24 03:21:37.420 ,7,0,0.,4.8,0.,4.8,0.,4.8,1.,4.8
1986-01-24 03:21:42.220 ,7,0,0.,4.8,0.,4.8,0.,4.8,0.,4.8
1986-01-24 03:21:47.020 ,7,0,0.,4.8,0.,4.8,0.,4.8,0.,4.8
1986-01-24 03:21:51.820 ,7,0,0.,4.8,0.,4.8,0.,4.8,1.,4.8
1986-01-24 03:21:56.620 ,7,0,0.,4.8,1.,4.8,0.,4.8,1.,4.8
1986-01-24 03:22:01.420 ,7,0,0.,4.8,0.,4.8,0.,4.8,0.,4.8
1986-01-24 03:22:06.220 ,7,0,0.,4.8,0.,4.8,0.,4.8,0.,4.8
1986-01-24 03:22:11.020 ,7,0,0.,4.8,1.,4.8,0.,4.8,0.,4.8
1986-01-24 03:22:15.820 ,7,0,0.,4.8,2.,4.8,0.,4.8,0.,4.8
1986-01-24 03:22:20.620 ,7,0,0.,4.8,0.,4.8,0.,4.8,0.,4.8
1986-01-24 03:22:25.420 ,7,0,0.,4.8,2.,4.8,0.,4.8,0.,4.8
1986-01-24 03:22:30.220 ,7,0,0.,4.8,2.,4.8,0.,4.8,0.,4.8
1986-01-24 03:22:35.020 ,7,0,0.,4.8,1.,4.8,0.,4.8,0.,4.8
1986-01-24 03:22:39.820 ,7,0,0.,4.8,1.,4.8,0.,4.8,1.,4.8
1986-01-24 03:22:44.620 ,7,0,0.,4.8,0.,4.8,0.,4.8,0.,4.8
1986-01-24 03:22:49.420 ,7,0,0.,4.8,1.,4.8,0.,4.8,0.,4.8
1986-01-24 03:22:54.220 ,7,0,0.,4.8,1.,4.8,0.,4.8,0.,4.8
1986-01-24 03:22:59.020 ,7,0,0.,4.8,1.,4.8,1.,4.8,1.,4.8
1986-01-24 03:23:03.820 ,7,0,0.,4.8,0.,4.8,0.,4.8,0.,4.8
1986-01-24 03:23:08.620 ,7,0,0.,4.8,1.,4.8,0.,4.8,0.,4.8
1986-01-24 03:23:13.420 ,6,0,0.,4.8,1.,4.8,0.,4.8,0.,4.8
1986-01-24 03:23:18.220 ,6,0,0.,4.8,2.,4.8,0.,4.8,0.,4.8
1986-01-24 03:23:23.020 ,6,0,0.,4.8,0.,4.8,0.,4.8,0.,4.8
1986-01-24 03:23:27.820 ,6,0,0.,4.8,1.,4.8,0.,4.8,0.,4.8
1986-01-24 03:23:32.620 ,6,0,0.,4.8,2.,4.8,0.,4.8,0.,4.8
1986-01-24 03:23:37.420 ,6,0,0.,4.8,1.,4.8,0.,4.8,0.,4.8
1986-01-24 03:23:42.220 ,6,0,0.,4.8,1.,4.8,0.,4.8,0.,4.8
1986-01-24 03:23:47.020 ,6,0,0.,4.8,1.,4.8,0.,4.8,0.,4.8
1986-01-24 03:23:51.820 ,6,0,0.,4.8,0.,4.8,0.,4.8,0.,4.8
1986-01-24 03:23:56.620 ,6,0,0.,4.8,0.,4.8,0.,4.8,1.,4.8
1986-01-24 03:24:01.420 ,5,0,0.,4.8,0.,4.8,0.,4.8,0.,4.8
1986-01-24 03:24:06.220 ,5,0,0.,4.8,1.,4.8,0.,4.8,0.,4.8
1986-01-24 03:24:11.020 ,5,0,0.,4.8,0.,4.8,1.,4.8,0.,4.8
1986-01-24 03:24:15.820 ,5,0,0.,4.8,2.,4.8,0.,4.8,0.,4.8
1986-01-24 03:24:20.620 ,5,0,0.,4.8,1.,4.8,0.,4.8,0.,4.8
1986-01-24 03:24:25.420 ,5,0,0.,4.8,0.,4.8,0.,4.8,0.,4.8
1986-01-24 03:24:30.220 ,5,0,0.,4.8,0.,4.8,0.,4.8,0.,4.8
1986-01-24 03:24:35.020 ,5,0,0.,4.8,1.,4.8,1.,4.8,0.,4.8
1986-01-24 03:24:39.820 ,5,0,0.,4.8,3.,4.8,0.,4.8,1.,4.8
1986-01-24 03:24:44.620 ,5,0,0.,4.8,0.,4.8,0.,4.8,0.,4.8
1986-01-24 03:24:49.420 ,4,0,0.,4.8,1.,4.8,0.,4.8,0.,4.8
1986-01-24 03:24:54.220 ,4,0,0.,4.8,0.,4.8,0.,4.8,0.,4.8
1986-01-24 03:24:59.020 ,4,0,0.,4.8,1.,4.8,0.,4.8,0.,4.8
1986-01-24 03:25:03.820 ,4,0,0.,4.8,1.,4.8,0.,4.8,0.,4.8
1986-01-24 03:25:08.620 ,4,0,0.,4.8,1.,4.8,0.,4.8,0.,4.8
1986-01-24 03:25:13.420 ,4,0,0.,4.8,0.,4.8,0.,4.8,0.,4.8
1986-01-24 03:25:18.220 ,4,0,0.,4.8,0.,4.8,0.,4.8,0.,4.8
1986-01-24 03:25:23.020 ,4,0,0.,4.8,1.,4.8,0.,4.8,0.,4.8
1986-01-24 03:25:27.820 ,4,0,0.,4.8,0.,4.8,0.,4.8,0.,4.8
1986-01-24 03:25:32.620 ,4,0,0.,4.8,0.,4.8,1.,4.8,0.,4.8
1986-01-24 03:25:37.420 ,3,0,0.,4.8,0.,4.8,0.,4.8,0.,4.8
1986-01-24 03:25:42.220 ,3,0,0.,4.8,0.,4.8,0.,4.8,0.,4.8
1986-01-24 03:25:47.020 ,3,0,0.,4.8,1.,4.8,0.,4.8,0.,4.8
1986-01-24 03:25:51.820 ,3,0,0.,4.8,1.,4.8,0.,4.8,0.,4.8
1986-01-24 03:25:56.620 ,3,0,0.,4.8,0.,4.8,0.,4.8,0.,4.8
1986-01-24 03:26:01.420 ,3,0,0.,4.8,0.,4.8,0.,4.8,0.,4.8
1986-01-24 03:26:06.220 ,3,0,0.,4.8,0.,4.8,0.,4.8,0.,4.8
1986-01-24 03:26:11.020 ,3,0,0.,4.8,2.,4.8,1.,4.8,0.,4.8
1986-01-24 03:26:15.820 ,3,0,0.,4.8,0.,4.8,0.,4.8,0.,4.8
1986-01-24 03:26:20.620 ,3,0,0.,4.8,0.,4.8,0.,4.8,0.,4.8
1986-01-24 03:26:25.420 ,2,0,0.,4.8,0.,4.8,0.,4.8,0.,4.8
1986-01-24 03:26:30.220 ,2,0,0.,4.8,1.,4.8,0.,4.8,0.,4.8
1986-01-24 03:26:35.020 ,2,0,0.,4.8,1.,4.8,0.,4.8,0.,4.8
1986-01-24 03:26:39.820 ,2,0,0.,4.8,3.,4.8,0.,4.8,0.,4.8
1986-01-24 03:26:44.620 ,2,0,0.,4.8,0.,4.8,0.,4.8,0.,4.8
1986-01-24 03:26:49.420 ,2,0,0.,4.8,0.,4.8,0.,4.8,0.,4.8
1986-01-24 03:26:54.220 ,2,0,0.,4.8,1.,4.8,0.,4.8,0.,4.8
1986-01-24 03:26:59.020 ,2,0,0.,4.8,1.,4.8,0.,4.8,0.,4.8
1986-01-24 03:27:03.820 ,2,0,0.,4.8,0.,4.8,0.,4.8,0.,4.8
1986-01-24 03:27:08.620 ,2,0,0.,4.8,2.,4.8,0.,4.8,0.,4.8
1986-01-24 03:27:13.420 ,1,0,0.,4.8,2.,4.8,0.,4.8,0.,4.8
1986-01-24 03:27:18.220 ,1,0,0.,4.8,0.,4.8,0.,4.8,0.,4.8
1986-01-24 03:27:23.020 ,1,0,0.,4.8,0.,4.8,0.,4.8,0.,4.8
1986-01-24 03:27:27.820 ,1,0,0.,4.8,0.,4.8,0.,4.8,0.,4.8
1986-01-24 03:27:32.620 ,1,0,0.,4.8,0.,4.8,0.,4.8,0.,4.8
1986-01-24 03:27:37.420 ,1,0,0.,4.8,0.,4.8,0.,4.8,0.,4.8
1986-01-24 03:27:42.220 ,1,0,0.,4.8,0.,4.8,1.,4.8,0.,4.8
1986-01-24 03:27:47.020 ,1,0,0.,4.8,2.,4.8,0.,4.8,0.,4.8
1986-01-24 03:27:51.820 ,1,0,0.,4.8,0.,4.8,0.,4.8,0.,4.8
1986-01-24 03:27:56.620 ,1,0,0.,4.8,1.,4.8,0.,4.8,0.,4.8
1986-01-24 03:28:01.420 ,0,0,0.,4.8,0.,4.8,0.,4.8,0.,4.8
1986-01-24 03:28:06.220 ,0,0,0.,4.8,4.,4.8,0.,4.8,0.,4.8
1986-01-24 03:28:11.020 ,0,0,0.,4.8,0.,4.8,0.,4.8,0.,4.8
1986-01-24 03:28:15.820 ,0,0,0.,4.8,1.,4.8,0.,4.8,0.,4.8
1986-01-24 03:28:20.620 ,0,0,0.,4.8,1.,4.8,0.,4.8,0.,4.8
1986-01-24 03:28:25.420 ,0,0,0.,4.8,2.,4.8,0.,4.8,0.,4.8
1986-01-24 03:28:30.220 ,0,0,0.,4.8,1.,4.8,0.,4.8,0.,4.8
1986-01-24 03:28:35.020 ,0,0,0.,4.8,0.,4.8,0.,4.8,0.,4.8
1986-01-24 03:28:39.820 ,0,0,0.,4.8,1.,4.8,0.,4.8,0.,4.8
1986-01-24 03:28:44.620 ,0,0,0.,4.8,2.,4.8,0.,4.8,1.,4.8
1986-01-24 03:28:49.420 ,0,0,0.,4.8,1.,4.8,0.,4.8,0.,4.8
1986-01-24 03:28:54.220 ,0,0,0.,4.8,1.,4.8,0.,4.8,0.,4.8
1986-01-24 03:28:59.020 ,0,0,0.,4.8,2.,4.8,0.,4.8,0.,4.8
1986-01-24 03:29:03.820 ,0,0,0.,4.8,1.,4.8,0.,4.8,0.,4.8
1986-01-24 03:29:08.620 ,0,0,0.,4.8,3.,4.8,1.,4.8,0.,4.8
1986-01-24 03:29:13.420 ,0,0,0.,4.8,0.,4.8,1.,4.8,1.,4.8
1986-01-24 03:29:18.220 ,0,0,0.,4.8,3.,4.8,0.,4.8,0.,4.8
1986-01-24 03:29:23.020 ,0,0,0.,4.8,1.,4.8,0.,4.8,0.,4.8
1986-01-24 03:29:27.820 ,0,0,0.,4.8,3.,4.8,0.,4.8,0.,4.8
1986-01-24 03:29:32.620 ,0,0,0.,4.8,2.,4.8,0.,4.8,0.,4.8
1986-01-24 03:29:37.420 ,1,0,0.,4.8,0.,4.8,0.,4.8,0.,4.8
1986-01-24 03:29:42.220 ,1,0,0.,4.8,1.,4.8,0.,4.8,0.,4.8
1986-01-24 03:29:47.020 ,1,0,0.,4.8,1.,4.8,0.,4.8,0.,4.8
1986-01-24 03:29:51.820 ,1,0,0.,4.8,2.,4.8,0.,4.8,0.,4.8
1986-01-24 03:29:56.620 ,1,0,0.,4.8,1.,4.8,0.,4.8,0.,4.8
1986-01-24 03:30:01.420 ,1,0,0.,4.8,1.,4.8,0.,4.8,0.,4.8
1986-01-24 03:30:06.220 ,1,0,0.,4.8,2.,4.8,0.,4.8,0.,4.8
1986-01-24 03:30:11.020 ,1,0,0.,4.8,0.,4.8,0.,4.8,0.,4.8
1986-01-24 03:30:15.820 ,1,0,0.,4.8,1.,4.8,0.,4.8,0.,4.8
1986-01-24 03:30:20.620 ,1,0,0.,4.8,0.,4.8,0.,4.8,0.,4.8
1986-01-24 03:30:25.420 ,2,0,0.,4.8,2.,4.8,0.,4.8,0.,4.8
1986-01-24 03:30:30.220 ,2,0,0.,4.8,0.,4.8,0.,4.8,0.,4.8
1986-01-24 03:30:35.020 ,2,0,0.,4.8,2.,4.8,0.,4.8,0.,4.8
1986-01-24 03:30:39.820 ,2,0,0.,4.8,1.,4.8,0.,4.8,0.,4.8
1986-01-24 03:30:44.620 ,2,0,0.,4.8,0.,4.8,0.,4.8,0.,4.8
1986-01-24 03:30:49.420 ,2,0,0.,4.8,4.,4.8,0.,4.8,0.,4.8
1986-01-24 03:30:54.220 ,2,0,0.,4.8,1.,4.8,0.,4.8,0.,4.8
1986-01-24 03:30:59.020 ,2,0,0.,4.8,1.,4.8,0.,4.8,0.,4.8
1986-01-24 03:31:03.820 ,2,0,0.,4.8,1.,4.8,0.,4.8,0.,4.8
1986-01-24 03:31:08.620 ,2,0,0.,4.8,0.,4.8,0.,4.8,0.,4.8
1986-01-24 03:31:13.420 ,3,0,0.,4.8,1.,4.8,0.,4.8,0.,4.8
1986-01-24 03:31:18.220 ,3,0,0.,4.8,2.,4.8,0.,4.8,0.,4.8
1986-01-24 03:31:23.020 ,3,0,0.,4.8,0.,4.8,0.,4.8,0.,4.8
1986-01-24 03:31:27.820 ,3,0,0.,4.8,0.,4.8,0.,4.8,0.,4.8
1986-01-24 03:31:32.620 ,3,0,0.,4.8,1.,4.8,0.,4.8,0.,4.8
1986-01-24 03:31:37.420 ,3,0,0.,4.8,1.,4.8,0.,4.8,0.,4.8
1986-01-24 03:31:42.220 ,3,0,0.,4.8,0.,4.8,0.,4.8,0.,4.8
1986-01-24 03:31:47.020 ,3,0,0.,4.8,1.,4.8,1.,4.8,0.,4.8
1986-01-24 03:31:51.820 ,3,0,0.,4.8,1.,4.8,0.,4.8,0.,4.8
1986-01-24 03:31:56.620 ,3,0,0.,4.8,0.,4.8,0.,4.8,0.,4.8
1986-01-24 03:32:01.420 ,4,0,0.,4.8,1.,4.8,0.,4.8,0.,4.8
1986-01-24 03:32:06.220 ,4,0,0.,4.8,1.,4.8,0.,4.8,0.,4.8
1986-01-24 03:32:11.020 ,4,0,0.,4.8,2.,4.8,0.,4.8,0.,4.8
1986-01-24 03:32:15.820 ,4,0,0.,4.8,2.,4.8,0.,4.8,0.,4.8
1986-01-24 03:32:20.620 ,4,0,0.,4.8,0.,4.8,0.,4.8,0.,4.8
1986-01-24 03:32:25.420 ,4,0,0.,4.8,1.,4.8,0.,4.8,1.,4.8
1986-01-24 03:32:30.220 ,4,0,0.,4.8,1.,4.8,0.,4.8,0.,4.8
1986-01-24 03:32:35.020 ,4,0,0.,4.8,0.,4.8,0.,4.8,0.,4.8
1986-01-24 03:32:39.820 ,4,0,0.,4.8,2.,4.8,0.,4.8,0.,4.8
1986-01-24 03:32:44.620 ,4,0,0.,4.8,0.,4.8,0.,4.8,0.,4.8
1986-01-24 03:32:49.420 ,5,0,0.,4.8,0.,4.8,0.,4.8,0.,4.8
1986-01-24 03:32:54.220 ,5,0,0.,4.8,1.,4.8,0.,4.8,0.,4.8
1986-01-24 03:32:59.020 ,5,0,0.,4.8,0.,4.8,0.,4.8,0.,4.8
1986-01-24 03:33:03.820 ,5,0,0.,4.8,1.,4.8,0.,4.8,0.,4.8
1986-01-24 03:33:08.620 ,5,0,0.,4.8,0.,4.8,0.,4.8,0.,4.8
1986-01-24 03:33:13.420 ,5,0,0.,4.8,0.,4.8,0.,4.8,0.,4.8
1986-01-24 03:33:18.220 ,5,0,0.,4.8,0.,4.8,0.,4.8,0.,4.8